Location: Brunembert
(50.7122°N, 1.8935°E)
Time: 04:29:00
(UTC+00:00)

Cosmos 1386 Rocket - Pass Details

Date: 22 April 2021
Orbit: 928 x 1007 km, 83.0° (Epoch: 06 May)

Event Time Altitude Azimuth Distance (km) Brightness Sun altitude
Rises 22:12:10 0° 349° (N) 3,614 8.8 -23.2°
Reaches altitude 10° 22:14:40 10° 349° (N) 2,659 7.8 -23.4°
Maximum altitude 22:20:44 83° 262° (W) 944 4.3 -23.8°
Enters shadow 22:22:22 51° 182° (S) 1,156 4.5 -23.9°
